When you browse on this site, cookies collect data to enhance your experience and personalize the content and advertising you see.
Visit our Privacy Policy to learn more. By continuing to use the site, you agree to this use of cookies and data.

Hourly Weather Vereskovo

Today, 3 August, Monday

Time Temperature Precipitation Wind Pressure Humidity
00:00 +15°C° 0 mm 2 mps 746 mmHg 82%
01:00 +14°C° 0 mm 2 mps 746 mmHg 84%
02:00 +14°C° 0 mm 2 mps 746 mmHg 86%
03:00 +14°C° 0 mm 2 mps 746 mmHg 86%
04:00 +14°C° 0 mm 2 mps 746 mmHg 87%
05:00 +14°C° 0 mm 2 mps 745 mmHg 87%
06:00 +15°C° 0 mm 2 mps 745 mmHg 83%
07:00 +17°C° 0 mm 3 mps 745 mmHg 78%
08:00 +19°C° 0 mm 3 mps 745 mmHg 75%
09:00 +20°C° 0 mm 3 mps 745 mmHg 71%
10:00 +22°C° 0 mm 4 mps 745 mmHg 67%
11:00 +23°C° 0 mm 4 mps 745 mmHg 63%
12:00 +25°C° 0.1 mm 4 mps 745 mmHg 61%
13:00 +25°C° 0.1 mm 4 mps 745 mmHg 59%
14:00 +26°C° 0.1 mm 4 mps 745 mmHg 57%
15:00 +26°C° 0.1 mm 4 mps 745 mmHg 59%
16:00 +25°C° 0.1 mm 4 mps 744 mmHg 62%
17:00 +25°C° 0.1 mm 4 mps 744 mmHg 64%
18:00 +22°C° 0 mm 3 mps 744 mmHg 70%
19:00 +21°C° 0 mm 3 mps 744 mmHg 76%
20:00 +19°C° 0 mm 3 mps 744 mmHg 82%
21:00 +18°C° 0 mm 3 mps 744 mmHg 83%
22:00 +18°C° 0 mm 3 mps 744 mmHg 84%
23:00 +17°C° 0 mm 3 mps 744 mmHg 84%

Tomorrow, 4 August, Tuesday

Time Temperature Precipitation Wind Pressure Humidity
00:00 +17°C° 0 mm 3 mps 744 mmHg 85%
01:00 +17°C° 0 mm 4 mps 744 mmHg 85%
02:00 +15°C° 0 mm 4 mps 744 mmHg 85%
03:00 +15°C° 0 mm 4 mps 743 mmHg 87%
04:00 +15°C° 0 mm 4 mps 743 mmHg 88%
05:00 +14°C° 0 mm 4 mps 743 mmHg 90%
06:00 +15°C° 0 mm 4 mps 743 mmHg 86%
07:00 +17°C° 0 mm 4 mps 743 mmHg 82%
08:00 +17°C° 0 mm 5 mps 743 mmHg 78%
09:00 +19°C° 0 mm 5 mps 743 mmHg 76%
10:00 +20°C° 0 mm 4 mps 743 mmHg 74%
11:00 +21°C° 0 mm 4 mps 743 mmHg 72%
12:00 +22°C° 0 mm 4 mps 743 mmHg 71%
13:00 +23°C° 0 mm 5 mps 743 mmHg 70%
14:00 +25°C° 0 mm 5 mps 743 mmHg 68%
15:00 +25°C° 0 mm 4 mps 743 mmHg 71%
16:00 +23°C° 0 mm 4 mps 743 mmHg 73%
17:00 +24°C° 0 mm 3 mps 743 mmHg 75%
18:00 +24°C° 0.2 mm 3 mps 743 mmHg 76%
19:00 +22°C° 0.2 mm 3 mps 743 mmHg 78%
20:00 +22°C° 0.2 mm 3 mps 743 mmHg 79%
21:00 +21°C° 1 mm 3 mps 744 mmHg 83%
22:00 +20°C° 1 mm 3 mps 744 mmHg 88%
23:00 +19°C° 1 mm 3 mps 744 mmHg 92%

Day after tomorrow, 5 August, Wednesday

Time Temperature Precipitation Wind Pressure Humidity
00:00 +19°C° 0.9 mm 3 mps 745 mmHg 94%
01:00 +18°C° 0.9 mm 2 mps 745 mmHg 95%
02:00 +18°C° 0.9 mm 2 mps 745 mmHg 97%
03:00 +18°C° 0.6 mm 2 mps 746 mmHg 97%
04:00 +18°C° 0.6 mm 2 mps 746 mmHg 97%
05:00 +18°C° 0.6 mm 2 mps 746 mmHg 97%
06:00 +18°C° 0.3 mm 2 mps 747 mmHg 96%
07:00 +18°C° 0.3 mm 2 mps 747 mmHg 95%
08:00 +18°C° 0.3 mm 3 mps 748 mmHg 94%
09:00 +19°C° 0 mm 3 mps 748 mmHg 92%
10:00 +19°C° 0 mm 3 mps 748 mmHg 89%
11:00 +20°C° 0 mm 3 mps 749 mmHg 86%
12:00 +20°C° 0 mm 3 mps 749 mmHg 84%
13:00 +21°C° 0 mm 3 mps 749 mmHg 82%
14:00 +21°C° 0 mm 3 mps 749 mmHg 79%
15:00 +23°C° 0 mm 2 mps 749 mmHg 78%
16:00 +23°C° 0 mm 2 mps 750 mmHg 77%
17:00 +23°C° 0 mm 2 mps 750 mmHg 76%
18:00 +21°C° 0 mm 2 mps 750 mmHg 80%
19:00 +21°C° 0 mm 1 mps 750 mmHg 84%
20:00 +20°C° 0 mm 1 mps 751 mmHg 88%
21:00 +19°C° 0 mm 2 mps 751 mmHg 88%
22:00 +18°C° 0 mm 2 mps 751 mmHg 88%
23:00 +17°C° 0 mm 2 mps 752 mmHg 88%

6 August, Thursday

Time Temperature Precipitation Wind Pressure Humidity
00:00 +17°C° 0 mm 2 mps 752 mmHg 88%
01:00 +16°C° 0 mm 2 mps 752 mmHg 88%
02:00 +16°C° 0 mm 2 mps 752 mmHg 88%
03:00 +15°C° 0 mm 2 mps 752 mmHg 87%
04:00 +15°C° 0 mm 2 mps 752 mmHg 86%
05:00 +14°C° 0 mm 2 mps 753 mmHg 85%
06:00 +16°C° 0 mm 2 mps 753 mmHg 82%
07:00 +17°C° 0 mm 3 mps 753 mmHg 78%
08:00 +19°C° 0 mm 3 mps 754 mmHg 75%
09:00 +20°C° 0 mm 3 mps 754 mmHg 71%
10:00 +22°C° 0 mm 3 mps 754 mmHg 66%
11:00 +25°C° 0 mm 3 mps 754 mmHg 62%
12:00 +25°C° 0 mm 3 mps 754 mmHg 60%
13:00 +26°C° 0 mm 3 mps 754 mmHg 59%
14:00 +26°C° 0 mm 3 mps 754 mmHg 57%
15:00 +26°C° 0 mm 3 mps 754 mmHg 57%
16:00 +26°C° 0 mm 3 mps 754 mmHg 58%
17:00 +26°C° 0 mm 3 mps 754 mmHg 58%
18:00 +24°C° 0 mm 3 mps 754 mmHg 64%
19:00 +21°C° 0 mm 3 mps 754 mmHg 69%
20:00 +19°C° 0 mm 2 mps 754 mmHg 75%
21:00 +18°C° 0 mm 2 mps 754 mmHg 76%
22:00 +17°C° 0 mm 2 mps 755 mmHg 77%
23:00 +16°C° 0 mm 2 mps 755 mmHg 78%

7 August, Friday

Time Temperature Precipitation Wind Pressure Humidity
00:00 +15°C° 0 mm 2 mps 755 mmHg 80%
01:00 +15°C° 0 mm 2 mps 755 mmHg 82%
02:00 +15°C° 0 mm 2 mps 755 mmHg 84%
03:00 +14°C° 0 mm 2 mps 755 mmHg 86%
04:00 +14°C° 0 mm 2 mps 755 mmHg 87%
05:00 +14°C° 0 mm 2 mps 756 mmHg 89%
06:00 +16°C° 0 mm 2 mps 756 mmHg 84%
07:00 +17°C° 0 mm 2 mps 756 mmHg 80%
08:00 +19°C° 0 mm 2 mps 756 mmHg 75%
09:00 +21°C° 0 mm 3 mps 756 mmHg 69%
10:00 +22°C° 0 mm 3 mps 756 mmHg 63%
11:00 +25°C° 0 mm 3 mps 756 mmHg 57%
12:00 +26°C° 0 mm 3 mps 756 mmHg 55%
13:00 +26°C° 0 mm 3 mps 756 mmHg 54%
14:00 +27°C° 0 mm 3 mps 756 mmHg 53%
15:00 +26°C° 0 mm 3 mps 755 mmHg 55%
16:00 +26°C° 0 mm 3 mps 755 mmHg 57%
17:00 +26°C° 0 mm 3 mps 755 mmHg 59%
18:00 +24°C° 0 mm 3 mps 755 mmHg 66%
19:00 +21°C° 0 mm 2 mps 755 mmHg 73%
20:00 +20°C° 0 mm 2 mps 755 mmHg 81%
21:00 +19°C° 0 mm 2 mps 755 mmHg 84%
22:00 +18°C° 0 mm 2 mps 755 mmHg 87%
23:00 +17°C° 0 mm 2 mps 755 mmHg 90%

8 August, Saturday

Time Temperature Precipitation Wind Pressure Humidity
00:00 +17°C° 0 mm 2 mps 755 mmHg 90%
01:00 +16°C° 0 mm 2 mps 755 mmHg 91%
02:00 +16°C° 0 mm 1 mps 755 mmHg 92%
03:00 +16°C° 0 mm 1 mps 754 mmHg 92%
04:00 +15°C° 0 mm 2 mps 754 mmHg 92%
05:00 +15°C° 0 mm 2 mps 754 mmHg 93%
06:00 +17°C° 0 mm 2 mps 754 mmHg 87%
07:00 +18°C° 0 mm 2 mps 754 mmHg 82%
08:00 +20°C° 0 mm 2 mps 754 mmHg 77%
09:00 +21°C° 0 mm 2 mps 754 mmHg 71%
10:00 +24°C° 0 mm 2 mps 754 mmHg 65%
11:00 +25°C° 0 mm 2 mps 754 mmHg 59%
12:00 +26°C° 0 mm 2 mps 753 mmHg 57%
13:00 +26°C° 0 mm 2 mps 753 mmHg 55%
14:00 +27°C° 0 mm 1 mps 752 mmHg 52%
15:00 +27°C° 0 mm 1 mps 752 mmHg 53%
16:00 +27°C° 0 mm 1 mps 752 mmHg 54%
17:00 +26°C° 0 mm 1 mps 752 mmHg 55%
18:00 +25°C° 0.1 mm 1 mps 751 mmHg 63%
19:00 +23°C° 0.1 mm 1 mps 751 mmHg 71%
20:00 +21°C° 0.1 mm 1 mps 751 mmHg 79%
21:00 +20°C° 0.1 mm 1 mps 751 mmHg 81%
22:00 +20°C° 0.1 mm 1 mps 751 mmHg 84%
23:00 +18°C° 0.1 mm 2 mps 751 mmHg 86%
Show more